Powrót do katalogu

GLOBALSTAR M071

AktywnyŁącznośćLEO
NORAD 31576·PAYLOAD·🇺🇸 United States

Wystrzelony May 29, 2007 z Baikonur Cosmodrome

Loading…

Następne Przeloty (najbliższe 24 godziny)

TLE

ŚwieżeSource: Space-Track

Epoka: Sep 14, 2026, 09:51 UTC

1 31576U 07020F   26257.41079536 -.00000166  00000-0 -73607-3 0  9999
2 31576  52.0080  38.0038 0000388  16.2726  17.8452 12.18272037550307

Śledź GLOBALSTAR M071 w czasie rzeczywistym z AllMySat

Download on the App Store